Terminal Aerodrome Forecast
Issued by NWS Portland, OR

Home | Current Version | Previous Version | Text Only | Print | Product List | Glossary On
Versions: 1 2 3 4 5 6 7 8 9 10 11 12 13 14 15 16 17 18 19 20 21 22 23 24 25 26 27 28 29 30 31 32 33 34 35 36 37 38 39 40 41 42
000
FTUS46 KPQR 010530
TAFAST
TAF
KAST 010530Z 0106/0206 33011KT P6SM SCT015
     FM010700 32006KT P6SM BKN010
     FM011000 31004KT 6SM BR OVC007
     FM011500 32009KT P6SM OVC015
     FM011900 32012G18KT P6SM FEW015=

USA.gov is the U.S. government's official web portal to all federal, state and local government web resources and services.